SP6TSE-13 Weather Reports


time (UTC)temp
F
wind
direction
speed
knots
gust
knots
rain 1hr
in
rain 24hr
in
rain mn
in
humidity
%
barometer
mb
20260905182534 59 325 6.1 25.2 0.09 0.09 0.09 88 1019.0
20260905181534 59 276 7.8 26.9 0.08 0.08 0.08 87 1019.0
20260905180534 59 324 16.5 70.4 0.06 0.06 0.06 84 1019.0
20260905175534 64 274 7.8 29.5 0.05 0.05 0.05 59 1018.3
20260905174534 66 246 9.6 39.1 0.05 0.05 0.05 56 1017.6
20260905173534 66 215 6.1 21.7 0.05 0.05 0.05 56 1017.3
20260905172534 66 205 7.8 26.9 0.05 0.05 0.05 55 1017.3
20260905171534 66 221 5.2 19.1 0.05 0.05 0.05 54 1017.3
20260905170534 66 257 10.4 46.9 0.05 0.05 0.05 53 1017.3
20260905165534 68 297 7.0 26.9 0.05 0.05 0.05 52 1017.3
20260905164535 66 210 12.2 48.7 0.05 0.05 0.05 53 1017.3
20260905163536 66 241 10.4 46.9 0.05 0.05 0.05 53 1017.3
20260905162534 68 253 3.5 11.3 0.05 0.05 0.05 52 1016.9
20260905161534 68 274 6.1 21.7 0.05 0.05 0.05 52 1016.6
20260905160534 68 262 13.9 52.1 0.05 0.05 0.05 51 1016.6
20260905155534 68 144 10.4 42.6 0.05 0.05 0.05 51 1016.6
20260905154534 68 247 5.2 19.1 0.05 0.05 0.05 50 1016.6
20260905153534 68 216 14.8 62.6 0.05 0.05 0.05 50 1016.6
20260905152534 68 258 17.4 73.9 0.05 0.05 0.05 49 1016.6
20260905151534 70 191 7.8 33.0 0.05 0.05 0.05 48 1016.6
20260905150534 70 249 9.6 37.4 0.05 0.05 0.05 48 1016.6
20260905145534 70 228 10.4 48.7 0.05 0.05 0.05 47 1016.6
20260905144534 70 262 7.8 29.5 0.05 0.05 0.05 47 1016.3
20260905143534 70 241 14.8 56.5 0.05 0.05 0.05 45 1016.6
20260905142534 70 308 13.0 52.1 0.05 0.05 0.05 46 1016.3
20260905141534 70 268 20.9 83.4 0.05 0.05 0.05 44 1016.3
20260905140535 70 211 20.9 83.4 0.05 0.05 0.05 47 1016.6
20260905135534 70 223 14.8 62.6 0.05 0.05 0.05 48 1016.3
20260905134534 70 194 12.2 50.4 0.05 0.05 0.05 48 1016.3
20260905133535 70 217 13.9 52.1 0.05 0.05 0.05 51 1016.3
20260905132536 70 258 5.2 19.1 0.05 0.05 0.05 50 1016.3
20260905131534 70 264 16.5 73.9 0.05 0.05 0.05 50 1016.3
20260905130534 70 264 18.2 72.1 0.05 0.05 0.05 51 1016.3
20260905125534 68 283 12.2 52.1 0.05 0.05 0.05 51 1016.6
20260905124534 68 312 5.2 19.1 0.05 0.05 0.05 53 1016.6
20260905123534 68 317 10.4 42.6 0.05 0.05 0.05 50 1016.6
20260905122534 68 242 14.8 62.6 0.05 0.05 0.05 50 1016.6
20260905121534 68 220 7.8 34.8 0.05 0.05 0.05 53 1016.6
20260905120534 68 221 13.9 50.4 0.05 0.05 0.05 52 1016.9
20260905115534 66 252 13.9 60.0 0.05 0.05 0.05 52 1016.9
20260905114534 68 252 10.4 42.6 0.05 0.05 0.05 51 1016.9
20260905113534 68 258 15.6 62.6 0.05 0.05 0.05 52 1016.9
20260905112534 68 12 13.9 60.0 0.05 0.05 0.05 52 1016.9
20260905111534 68 222 21.7 83.4 0.05 0.05 0.05 54 1016.9
20260905110534 66 198 9.6 34.8 0.05 0.05 0.05 55 1016.9
20260905105534 66 246 13.9 60.0 0.05 0.05 0.05 58 1016.9
20260905104534 66 239 7.0 26.9 0.05 0.05 0.05 56 1016.6
20260905103535 66 221 10.4 39.1 0.05 0.05 0.05 58 1016.6
20260905102534 66 227 12.2 48.7 0.05 0.05 0.05 60 1016.6
20260905101534 66 228 18.2 72.1 0.05 0.05 0.05 60 1016.6
20260905100534 66 251 3.5 13.9 0.05 0.05 0.05 62 1016.9
20260905095534 64 289 7.8 29.5 0.05 0.05 0.05 66 1016.6
20260905094534 64 228 13.0 48.7 0.05 0.05 0.05 61 1016.6
20260905093534 64 54 11.3 46.9 0.05 0.05 0.05 64 1016.6
20260905092534 66 256 6.1 25.2 0.05 0.05 0.05 65 1016.6
20260905091534 64 229 7.8 34.8 0.05 0.05 0.05 65 1016.6
20260905090534 64 202 13.9 50.4 0.05 0.05 0.05 66 1016.6
20260905085534 64 205 13.9 50.4 0.05 0.05 0.05 66 1016.6
20260905084534 64 236 7.8 29.5 0.05 0.05 0.05 69 1016.6
20260905083534 64 229 12.2 46.9 0.05 0.05 0.05 68 1016.6
20260905082534 63 235 10.4 40.8 0.05 0.05 0.05 69 1016.6
20260905081535 63 306 9.6 39.1 0.05 0.05 0.05 71 1016.6
20260905080534 64 360 7.8 29.5 0.05 0.05 0.05 71 1016.3
20260905075534 63 241 14.8 62.6 0.05 0.05 0.05 70 1016.3
20260905074534 63 215 10.4 40.8 0.05 0.05 0.05 71 1016.6
20260905073534 63 158 9.6 39.1 0.05 0.05 0.05 73 1016.3
20260905072534 63 305 13.9 64.3 0.05 0.05 0.05 72 1015.9
20260905070534 63 263 12.2 52.1 0.05 0.05 0.05 75 1015.9
20260905065534 63 253 7.8 26.9 0.05 0.05 0.05 76 1015.6
20260905064534 63 342 9.6 40.8 0.05 0.05 0.05 76 1015.6
20260905063534 61 240 13.0 48.7 0.05 0.05 0.05 78 1015.6
20260905062534 61 228 10.4 40.8 0.05 0.05 0.05 79 1015.6
20260905061534 63 253 9.6 39.1 0.05 0.05 0.05 79 1015.6
20260905060534 63 256 7.0 26.9 0.05 0.05 0.05 78 1015.6
20260905055534 61 234 10.4 40.8 0.05 0.05 0.05 79 1015.6
20260905054534 61 245 5.2 17.4 0.05 0.05 0.05 80 1015.2
20260905053534 61 216 9.6 39.1 0.05 0.05 0.05 80 1015.2
20260905052534 61 218 7.0 26.9 0.05 0.05 0.05 82 1014.9
20260905051534 61 222 13.9 48.7 0.05 0.05 0.05 83 1014.9
20260905050534 61 210 9.6 39.1 0.05 0.05 0.05 83 1014.9
20260905045534 61 232 7.0 26.9 0.05 0.05 0.05 83 1014.9
20260905044534 61 221 7.0 26.9 0.05 0.05 0.05 83 1014.6
20260905043534 61 207 7.0 26.9 0.05 0.05 0.05 85 1014.6
20260905042534 59 252 3.5 13.9 0.05 0.05 0.05 86 1014.2
20260905041534 61 229 5.2 17.4 0.05 0.05 0.05 84 1013.9
20260905040534 61 207 5.2 17.4 0.05 0.05 0.05 84 1014.2
20260905035534 61 247 3.5 13.9 0.05 0.05 0.05 83 1013.9
20260905034534 61 344 1.7 6.1 0.05 0.05 0.05 83 1013.9
20260905033534 61 236 5.2 21.7 0.05 0.05 0.05 82 1013.9
20260905032534 61 283 4.3 17.4 0.05 0.05 0.05 83 1013.9
20260905031534 61 262 7.8 33.0 0.05 0.05 0.05 82 1013.9
20260905030534 61 211 7.0 25.2 0.05 0.05 0.05 82 1013.6
20260905025534 61 259 9.6 37.4 0.05 0.05 0.05 83 1013.2
20260905024534 61 270 5.2 21.7 0.05 0.05 0.05 83 1013.2
20260905023534 61 253 9.6 39.1 0.05 0.05 0.05 82 1012.9
20260905022534 61 227 5.2 17.4 0.05 0.05 0.05 83 1013.2
20260905021534 61 229 9.6 37.4 0.05 0.05 0.05 83 1012.5
20260905020534 61 222 7.0 25.2 0.05 0.05 0.05 83 1012.5
20260905015534 61 253 5.2 19.1 0.05 0.05 0.05 83 1012.5
20260905014534 61 247 7.8 39.1 0.05 0.05 0.05 83 1012.2
20260905013534 61 239 9.6 37.4 0.05 0.05 0.05 83 1012.2
20260905012534 61 239 7.0 25.2 0.05 0.05 0.05 84 1012.5
20260905011534 61 235 9.6 40.8 0.05 0.05 0.05 85 1012.5
20260905010534 61 249 13.0 52.1 0.05 0.05 0.05 87 1012.5
20260905005534 61 336 6.1 25.2 0.05 0.05 0.05 87 1011.9
20260905004534 61 229 7.8 39.1 0.05 0.05 0.05 87 1012.2
20260905003534 61 251 3.5 15.6 0.05 0.05 0.05 88 1012.5
20260905002534 61 227 11.3 46.9 0.05 0.05 0.05 87 1012.5
20260905001534 61 206 7.8 26.9 0.05 0.05 0.05 86 1012.5
20260905000534 63 262 10.4 39.1 0.05 0.05 0.05 87 1012.2
20260904235534 63 246 14.8 70.4 0.05 0.05 0.05 87 1012.2
20260904234534 63 255 7.8 29.5 0.05 0.05 0.05 87 1012.2
20260904233534 61 228 5.2 19.1 0.05 0.05 0.05 89 1011.9
20260904232534 61 262 6.1 25.2 0.05 0.05 0.05 90 1011.2
20260904231534 61 238 7.8 34.8 0.05 0.05 0.05 89 1012.2
20260904230534 61 228 7.8 26.9 0.05 0.05 0.05 86 1011.5
20260904225534 61 317 7.8 33.0 0.05 0.05 0.05 87 1011.5
20260904224534 61 251 7.8 39.1 0.05 0.05 0.05 90 1011.9
20260904223534 61 242 16.5 66.0 0.03 0.03 0.03 91 1011.9
20260904222534 61 228 5.2 19.1 0.02 0.02 0.02 91 1011.2
20260904221534 61 240 6.1 25.2 0.00 0.00 0.00 90 1011.2
20260904220535 61 235 9.6 34.8 0.00 0.00 0.00 90 1011.9
20260904215535 61 239 9.6 39.1 0.28 0.28 0.28 90 1011.5
20260904214534 63 218 9.6 39.1 0.25 0.25 0.25 88 1011.2
20260904213534 63 228 7.8 26.9 0.24 0.24 0.24 87 1011.2
20260904212534 63 223 7.0 25.2 0.22 0.22 0.22 87 1010.8
20260904211533 63 210 7.8 26.9 0.22 0.22 0.22 88 1011.5
20260904210534 63 222 6.1 25.2 0.19 0.19 0.19 87 1011.5
20260904205534 63 264 5.2 21.7 0.17 0.17 0.17 87 1011.2
20260904204534 63 270 7.8 29.5 0.16 0.16 0.16 83 1011.2
20260904203534 63 207 7.8 26.9 0.16 0.16 0.16 83 1011.5
20260904202534 64 300 9.6 37.4 0.16 0.16 0.16 83 1011.9
20260904201534 64 227 5.2 19.1 0.14 0.14 0.14 80 1011.5
20260904200534 64 256 3.5 13.9 0.14 0.14 0.14 79 1011.5
20260904195534 66 273 6.1 21.7 0.14 0.14 0.14 77 1011.2
20260904194534 66 275 4.3 17.4 0.14 0.14 0.14 78 1011.2
20260904193534 66 228 5.2 17.4 0.14 0.14 0.14 80 1011.2
20260904192534 66 249 13.0 54.7 0.14 0.14 0.14 80 1011.5
20260904191534 66 291 5.2 21.7 0.14 0.14 0.14 81 1010.5
20260904190534 66 325 5.2 21.7 0.14 0.14 0.14 83 1010.5
20260904185534 68 12 3.5 13.9 0.14 0.14 0.14 81 1009.8
20260904184534 68 241 12.2 48.7 0.14 0.14 0.14 80 1009.8
20260904183534 68 264 6.1 21.7 0.14 0.14 0.14 85 1009.5